Home > Weather > Newmarket > Past weeks

Flag for Canada Past Weather in Newmarket, Ontario, Canada — Yesterday and Last 2 Weeks

Now
79 °F

Sunny.


Feels Like: 80 °F
Forecast: 67 / 84 °F
Wind: 7 mph from North

Location: Borden

Current Time: Jul 23, 2016 at 9:23:36 AM

Latest Report: Jul 23, 2016 at 9:00 AM


Visibility: 9 mi

Pressure: 29.92 "Hg

Humidity: 54%

Dew Point: 61 °F

Location of NewmarketLocation

Past Weather in Newmarket — Graph

°F

Newmarket Temperature Yesterday

Maximum temperature yesterday: 93 °F (at 4:00 PM)
Minimum temperature yesterday: 70 °F (at 4:00 AM)
Average temperature yesterday: 81 °F

High & Low Weather Summary for the Past Weeks

 TemperatureHumidityPressure
High93 °F (Jul 13, 3:00 PM)100% (Jul 8, 10:00 PM)30.29 "Hg (Jul 8, 10:00 PM)
Low43 °F (Jul 17, 4:00 AM)26% (Jul 22, 4:00 PM)29.67 "Hg (Jul 9, 4:00 AM)
Average71 °F67%29.96 "Hg
* Reported Jul 8 8:00 AM — Jul 23 8:00 AM, Newmarket, Weather by CustomWeather, © 2016

Note: Actual official high and low records may vary slightly from our data, if they occured in-between our weather recording intervals... More about our weather records

Advertising

Newmarket Weather History for the Previous 24 Hours

Scroll right to see more
 ConditionsComfort  
Time TempWeatherWind HumidityBarometerVisibility
8:00 AM
Sat, Jul 23
75 °FSunny.3 mph61%29.91 "Hg9 mi
7:00 AM70 °FSunny.6 mph69%29.89 "Hg9 mi
6:00 AM68 °FClear.7 mph73%29.90 "Hg9 mi
5:00 AM70 °FClear.7 mph69%29.90 "Hg9 mi
4:00 AM70 °FClear.7 mph64%29.90 "Hg9 mi
3:00 AM66 °FClear.5 mph73%29.89 "Hg9 mi
2:00 AM66 °FClear.2 mph68%29.88 "Hg9 mi
1:00 AM70 °FClear.6 mph64%29.87 "Hg9 mi
12:00 AM72 °FClear.5 mph61%29.87 "Hg9 mi
11:00 PM
Fri, Jul 22
72 °FClear.5 mph57%29.88 "Hg9 mi
10:00 PM75 °FClear.5 mph50%29.87 "Hg9 mi
9:00 PM79 °FSunny.6 mph45%29.85 "Hg9 mi
8:00 PM84 °FSunny.10 mph37%29.85 "Hg9 mi
7:00 PM86 °FSunny.18 mph38%29.83 "Hg9 mi
6:00 PM88 °FSunny.21 mph35%29.84 "Hg9 mi
5:00 PM90 °FSunny.14 mph33%29.84 "Hg9 mi
4:00 PM93 °FPassing clouds.16 mph26%29.85 "Hg9 mi
3:00 PM91 °FPassing clouds.13 mph30%29.85 "Hg9 mi
2:00 PM91 °FPassing clouds.13 mph34%29.85 "Hg9 mi
1:00 PM90 °FPassing clouds.15 mph38%29.86 "Hg9 mi
12:00 PM88 °FPassing clouds.9 mph46%29.86 "Hg9 mi
11:00 AM86 °FPassing clouds.10 mph52%29.86 "Hg9 mi
10:00 AM82 °FPassing clouds.8 mph62%29.86 "Hg9 mi
9:00 AM81 °FPassing clouds.5 mph70%29.86 "Hg9 mi
Weather by CustomWeather, © 2016

See weather overviewHow to use our weather pages